GW1075 Weather Reports


time (UTC)temp
C
wind
direction
speed
KPH
gust
KPH
rain 1hr
cm
rain 24hr
cm
rain mn
cm
humidity
%
barometer
mb
20260509124006 21 34 1.6 12.9 0.00 0.00 0.00 84 1010.7
20260509123508 21 285 1.6 12.9 0.00 0.00 0.00 84 1010.8
20260509123024 21 324 1.6 8.0 0.00 0.00 0.00 84 1011.0
20260509122508 21 305 0.0 8.0 0.00 0.00 0.00 84 1010.8
20260509122009 21 5 1.6 6.4 0.00 0.00 0.00 84 1010.9
20260509121522 21 295 3.2 8.0 0.00 0.00 0.00 85 1010.9
20260509121009 21 304 0.0 8.0 0.00 0.00 0.00 86 1010.7
20260509120506 21 250 3.2 6.4 0.00 0.00 0.00 87 1010.7
20260509120029 21 317 1.6 6.4 0.00 0.00 0.00 87 1010.7
20260509115507 20 306 3.2 4.8 0.00 0.00 0.00 88 1010.7
20260509115010 20 290 0.0 3.2 0.00 0.00 0.00 88 1010.5
20260509114523 20 281 0.0 4.8 0.00 0.00 0.00 89 1010.4
20260509114011 20 257 1.6 4.8 0.00 0.00 0.00 89 1010.3
20260509113510 20 159 0.0 3.2 0.00 0.00 0.00 89 1010.2
20260509113019 20 198 0.0 3.2 0.00 0.00 0.00 89 1010.2
20260509112507 20 198 0.0 3.2 0.00 0.00 0.00 89 1010.2
20260509112009 21 198 0.0 3.2 0.00 0.00 0.00 89 1010.0
20260509111522 21 155 0.0 4.8 0.00 0.00 0.00 89 1009.8
20260509111010 21 171 1.6 4.8 0.00 0.00 0.00 89 1009.8
20260509110508 21 273 0.0 3.2 0.00 0.00 0.00 89 1009.7
20260509110027 21 189 0.0 6.4 0.00 0.00 0.00 89 1009.7
20260509105509 21 285 1.6 6.4 0.00 0.00 0.00 90 1009.6
20260509105010 21 251 0.0 4.8 0.00 0.00 0.00 90 1009.7
20260509104522 21 180 1.6 4.8 0.00 0.00 0.00 90 1009.7
20260509104005 21 189 0.0 3.2 0.00 0.00 0.00 90 1009.8
20260509103505 21 193 0.0 3.2 0.00 0.00 0.00 90 1009.8
20260509103016 21 193 0.0 3.2 0.00 0.00 0.00 90 1009.8
20260509102512 21 193 0.0 3.2 0.00 0.00 0.00 90 1009.7
20260509102011 21 186 0.0 3.2 0.00 0.00 0.00 91 1009.7
20260509101532 21 311 0.0 3.2 0.00 0.00 0.00 91 1009.7
20260509101007 20 311 0.0 3.2 0.00 0.00 0.00 91 1009.7
20260509100507 20 126 0.0 3.2 0.00 0.00 0.00 91 1009.6
20260509100027 20 334 0.0 3.2 0.00 0.00 0.00 91 1009.6
20260509095510 20 323 0.0 3.2 0.00 0.00 0.00 91 1009.5
20260509095007 21 131 0.0 3.2 0.00 0.00 0.00 91 1009.3
20260509094531 20 331 0.0 3.2 0.00 0.00 0.00 91 1009.4
20260509094007 20 100 0.0 3.2 0.00 0.00 0.00 91 1009.1
20260509093506 20 145 1.6 4.8 0.00 0.00 0.00 90 1009.0
20260509093016 20 22 1.6 6.4 0.00 0.00 0.00 90 1009.1
20260509092506 20 332 1.6 8.0 0.00 0.00 0.00 90 1008.5
20260509092007 20 162 1.6 11.3 0.00 0.00 0.00 90 1007.8
20260509091517 20 275 3.2 14.5 0.00 0.00 0.00 90 1007.8
20260509091012 20 138 3.2 16.1 0.00 0.00 0.00 89 1007.6
20260509090508 20 253 3.2 16.1 0.00 0.00 0.00 89 1007.6
20260509090024 20 194 1.6 12.9 0.00 0.00 0.00 89 1007.5
20260509085509 20 181 3.2 12.9 0.00 0.00 0.00 89 1007.4
20260509085010 20 151 3.2 16.1 0.00 0.00 0.00 89 1007.5
20260509084529 20 91 1.6 16.1 0.00 0.00 0.00 88 1008.2
20260509084014 20 157 4.8 11.3 0.00 0.00 0.00 88 1008.5
20260509083509 20 171 3.2 9.7 0.00 0.00 0.00 88 1008.8
20260509083026 21 185 1.6 9.7 0.00 0.00 0.00 87 1008.9
20260509082509 21 172 1.6 8.0 0.00 0.00 0.00 87 1009.2
20260509082007 21 172 3.2 9.7 0.00 0.00 0.00 87 1009.5
20260509081518 21 171 3.2 9.7 0.00 0.00 0.00 86 1009.8
20260509081008 21 173 0.0 3.2 0.00 0.00 0.00 86 1010.1
20260509080510 21 256 1.6 9.7 0.00 0.00 0.00 86 1010.0
20260509080024 21 186 1.6 9.7 0.00 0.00 0.00 86 1010.2
20260509075510 21 262 1.6 3.2 0.00 0.00 0.00 86 1010.3
20260509075011 21 200 0.0 3.2 0.00 0.00 0.00 85 1010.6
20260509074526 21 217 0.0 4.8 0.00 0.00 0.00 85 1010.6
20260509074007 21 138 1.6 4.8 0.00 0.00 0.00 85 1010.8
20260509073507 21 207 1.6 11.3 0.00 0.00 0.00 85 1010.8
20260509073027 21 232 1.6 12.9 0.00 0.00 0.00 86 1011.0
20260509072508 21 266 1.6 12.9 0.00 0.00 0.00 86 1011.2
20260509072008 21 123 1.6 6.4 0.00 0.00 0.00 86 1011.4
20260509071514 21 169 1.6 6.4 0.00 0.00 0.00 87 1011.5
20260509071012 21 313 1.6 6.4 0.00 0.00 0.00 88 1011.5
20260509070508 20 269 0.0 4.8 0.00 0.00 0.00 88 1011.5
20260509070020 20 260 0.0 3.2 0.00 0.00 0.00 88 1011.3
20260509065502 20 263 0.0 3.2 0.00 0.00 0.00 87 1011.2
20260509065002 20 259 0.0 1.6 0.00 0.00 0.00 87 1011.0
20260509064505 20 311 0.0 0.0 0.00 0.00 0.00 87 1010.9
20260509064009 20 311 0.0 0.0 0.00 0.00 0.00 87 1010.9
20260509063504 20 311 0.0 0.0 0.00 0.00 0.00 87 1011.0
20260509063007 20 311 0.0 3.2 0.00 0.00 0.00 87 1011.1
20260509062507 20 311 0.0 3.2 0.00 0.00 0.00 87 1011.3
20260509062006 20 227 0.0 0.0 0.00 0.00 0.00 87 1011.0
20260509061516 20 198 0.0 0.0 0.00 0.00 0.00 86 1011.1
20260509061006 20 198 0.0 0.0 0.00 0.00 0.00 86 1011.3
20260509060506 20 316 0.0 0.0 0.00 0.00 0.00 85 1011.5
20260509060017 21 315 0.0 0.0 0.00 0.00 0.00 85 1011.6
20260509055508 21 315 0.0 0.0 0.00 0.00 0.00 85 1011.7
20260509055008 21 315 0.0 0.0 0.00 0.00 0.00 85 1011.5
20260509054523 21 315 0.0 0.0 0.00 0.00 0.00 85 1011.7
20260509054006 21 316 0.0 0.0 0.00 0.00 0.00 85 1011.8
20260509053504 21 343 0.0 0.0 0.00 0.00 0.00 84 1012.0
20260509053006 21 343 0.0 0.0 0.00 0.00 0.00 84 1011.9
20260509052504 21 245 0.0 3.2 0.00 0.00 0.00 83 1011.8
20260509052004 21 245 0.0 3.2 0.00 0.00 0.00 83 1011.4
20260509051510 21 233 0.0 3.2 0.00 0.00 0.00 82 1011.1
20260509051007 21 217 0.0 3.2 0.00 0.00 0.00 82 1011.0
20260509050504 21 160 0.0 3.2 0.00 0.00 0.00 82 1010.9
20260509050025 21 266 0.0 3.2 0.00 0.00 0.00 81 1010.7
20260509045505 22 148 0.0 3.2 0.00 0.00 0.00 81 1011.0
20260509045010 22 218 0.0 3.2 0.00 0.00 0.00 81 1011.1
20260509044522 22 257 1.6 3.2 0.00 0.00 0.00 81 1010.9
20260509044008 22 295 0.0 3.2 0.00 0.00 0.00 81 1010.8
20260509043510 22 151 0.0 3.2 0.00 0.00 0.00 80 1010.8
20260509043005 22 170 0.0 3.2 0.00 0.00 0.00 80 1010.8
20260509042503 22 184 0.0 4.8 0.00 0.00 0.00 80 1011.0
20260509042005 22 165 1.6 4.8 0.00 0.00 0.00 80 1011.0
20260509041517 22 181 0.0 3.2 0.00 0.00 0.00 79 1011.0
20260509041005 22 175 0.0 3.2 0.00 0.00 0.00 80 1011.3
20260509040510 22 54 0.0 0.0 0.00 0.00 0.00 80 1011.6
20260509040014 22 54 0.0 0.0 0.00 0.00 0.00 80 1011.6
20260509035507 22 49 0.0 0.0 0.00 0.00 0.00 80 1011.6
20260509035009 22 49 0.0 1.6 0.00 0.00 0.00 80 1011.4
20260509034520 22 59 0.0 3.2 0.00 0.00 0.00 79 1011.2
20260509034014 22 73 0.0 3.2 0.00 0.00 0.00 79 1010.9
20260509033509 22 63 0.0 4.8 0.00 0.00 0.00 79 1010.8
20260509033022 22 159 1.6 4.8 0.00 0.00 0.00 79 1010.7
20260509032507 22 182 0.0 3.2 0.00 0.00 0.00 79 1010.9
20260509032013 22 163 0.0 3.2 0.00 0.00 0.00 78 1010.9
20260509031520 22 148 0.0 3.2 0.00 0.00 0.00 78 1010.8
20260509031007 22 162 0.0 3.2 0.00 0.00 0.00 78 1010.7
20260509030508 22 83 0.0 4.8 0.00 0.00 0.00 78 1010.6
20260509030013 22 82 0.0 4.8 0.00 0.00 0.00 78 1010.5
20260509025506 22 169 0.0 4.8 0.00 0.00 0.00 78 1010.5
20260509025006 22 149 0.0 4.8 0.00 0.00 0.00 78 1010.5
20260509024518 22 157 0.0 4.8 0.00 0.00 0.00 78 1010.3
20260509024006 22 153 0.0 4.8 0.00 0.00 0.00 78 1010.1
20260509023507 22 160 1.6 4.8 0.00 0.00 0.00 78 1010.0
20260509023025 22 74 1.6 3.2 0.00 0.00 0.00 78 1009.9
20260509022508 22 139 1.6 8.0 0.00 0.00 0.00 78 1009.9
20260509022010 22 121 1.6 8.0 0.00 0.00 0.00 77 1009.8
20260509021528 22 121 1.6 4.8 0.00 0.00 0.00 77 1009.7
20260509021008 22 141 1.6 6.4 0.00 0.00 0.00 76 1009.6
20260509020510 22 169 1.6 6.4 0.00 0.00 0.00 76 1009.6
20260509020013 22 164 0.0 6.4 0.00 0.00 0.00 76 1009.7
20260509015509 22 159 1.6 6.4 0.00 0.00 0.00 76 1009.8
20260509015008 22 148 1.6 8.0 0.00 0.00 0.00 76 1009.8
20260509014531 22 129 1.6 8.0 0.00 0.00 0.00 75 1009.9
20260509014005 22 284 1.6 9.7 0.00 0.00 0.00 76 1009.9
20260509013509 22 215 0.0 9.7 0.00 0.00 0.00 75 1009.8
20260509013021 22 164 1.6 9.7 0.00 0.00 0.00 75 1009.7
20260509012507 22 122 0.0 3.2 0.00 0.00 0.00 75 1009.8
20260509012007 22 163 0.0 3.2 0.00 0.00 0.00 75 1009.7
20260509011526 22 150 0.0 3.2 0.00 0.00 0.00 76 1009.6
20260509011008 22 103 0.0 3.2 0.00 0.00 0.00 76 1009.5
20260509010510 22 158 0.0 4.8 0.00 0.00 0.00 75 1009.4
20260509010031 22 106 1.6 4.8 0.00 0.00 0.00 75 1009.2
20260509005510 22 231 0.0 4.8 0.00 0.00 0.00 75 1009.1
20260509005009 22 163 1.6 4.8 0.00 0.00 0.00 75 1009.2
20260509004513 22 183 0.0 4.8 0.00 0.00 0.00 75 1009.1
20260509004007 22 112 0.0 6.4 0.00 0.00 0.00 74 1009.1
20260509003509 22 170 1.6 6.4 0.00 0.00 0.00 74 1009.1
20260509003020 22 155 1.6 6.4 0.00 0.00 0.00 73 1009.1
20260509002508 22 128 0.0 6.4 0.00 0.00 0.00 73 1009.2
20260509002009 22 163 1.6 6.4 0.00 0.00 0.00 73 1009.2
20260509001529 22 182 0.0 6.4 0.00 0.00 0.00 72 1009.3
20260509001012 22 116 3.2 6.4 0.00 0.00 0.00 72 1009.3
20260509000511 22 148 1.6 9.7 0.00 0.00 0.00 73 1009.3
20260509000025 22 170 1.6 9.7 0.00 0.00 0.00 72 1009.3
20260508235512 22 162 3.2 6.4 0.00 0.00 0.00 71 1009.4
20260508235004 23 128 3.2 6.4 0.00 0.00 0.00 71 1009.5
20260508234512 23 140 1.6 8.0 0.00 0.00 0.00 72 1009.5
20260508234009 23 279 1.6 8.0 0.00 0.00 0.00 71 1009.6
20260508233509 23 134 1.6 4.8 0.00 0.00 0.00 71 1009.6
20260508233019 23 70 0.0 9.7 0.00 0.00 0.00 70 1009.6
20260508232509 23 58 3.2 9.7 0.00 0.00 0.00 70 1009.6
20260508232009 23 102 1.6 4.8 0.00 0.00 0.00 70 1009.5
20260508231503 23 86 1.6 6.4 0.00 0.00 0.00 68 1009.5
20260508231003 23 322 0.0 6.4 0.00 0.00 0.00 69 1009.5
20260508230503 23 121 1.6 8.0 0.00 0.00 0.00 68 1009.5
20260508230006 23 182 1.6 8.0 0.00 0.00 0.00 68 1009.5
20260508225504 24 97 3.2 8.0 0.00 0.00 0.00 67 1009.6
20260508225006 24 146 1.6 8.0 0.00 0.00 0.00 66 1009.6
20260508224507 25 328 3.2 12.9 0.00 0.00 0.00 66 1009.5
20260508224003 24 254 1.6 12.9 0.00 0.00 0.00 66 1009.6
20260508223504 24 166 4.8 12.9 0.00 0.00 0.00 65 1009.6
20260508223013 24 253 1.6 11.3 0.00 0.00 0.00 65 1009.6
20260508222508 24 52 3.2 12.9 0.00 0.00 0.00 65 1009.6
20260508222010 24 139 3.2 12.9 0.00 0.00 0.00 65 1009.6
20260508221519 24 178 4.8 12.9 0.00 0.00 0.00 65 1009.5
20260508221007 23 115 3.2 6.4 0.00 0.00 0.00 66 1009.7
20260508220504 23 35 1.6 12.9 0.00 0.00 0.00 67 1009.8
20260508220011 23 159 1.6 12.9 0.00 0.00 0.00 65 1009.7
20260508215504 24 175 4.8 9.7 0.00 0.00 0.00 64 1009.7
20260508215005 24 175 3.2 9.7 0.00 0.00 0.00 64 1009.7
20260508214508 24 306 1.6 9.7 0.00 0.00 0.00 63 1009.8
20260508214003 25 147 3.2 9.7 0.00 0.00 0.00 62 1009.8
20260508213503 25 136 1.6 9.7 0.00 0.00 0.00 66 1009.8
20260508213011 25 99 1.6 9.7 0.00 0.00 0.00 66 1009.6
20260508212507 24 197 3.2 9.7 0.00 0.00 0.00 66 1009.4
20260508212006 24 161 1.6 9.7 0.00 0.00 0.00 66 1009.8
20260508211523 23 192 1.6 9.7 0.00 0.00 0.00 67 1009.9
20260508211008 23 111 1.6 6.4 0.00 0.00 0.00 69 1009.8
20260508210508 22 173 1.6 9.7 0.00 0.00 0.00 72 1009.7
20260508210022 22 112 3.2 8.0 0.00 0.00 0.00 70 1010.1
20260508205509 22 263 1.6 9.7 0.00 0.00 0.00 69 1010.6
20260508205003 22 75 1.6 9.7 0.00 0.00 0.00 68 1010.9
20260508204505 22 158 1.6 4.8 0.00 0.00 0.00 68 1011.1
20260508204003 22 155 1.6 4.8 0.00 0.00 0.00 68 1011.3
20260508203503 22 95 0.0 6.4 0.00 0.00 0.00 68 1011.4
20260508203010 22 270 1.6 6.4 0.00 0.00 0.00 68 1011.7
20260508202505 22 269 1.6 6.4 0.00 0.00 0.00 68 1011.7
20260508202007 22 242 1.6 9.7 0.00 0.00 0.00 67 1011.8
20260508201516 22 179 1.6 9.7 0.00 0.00 0.00 67 1011.7
20260508201007 23 265 1.6 9.7 0.00 0.00 0.00 66 1011.8
20260508200508 23 159 1.6 9.7 0.00 0.00 0.00 67 1011.7
20260508200019 23 288 1.6 12.9 0.00 0.00 0.00 66 1011.8
20260508195509 23 236 3.2 12.9 0.00 0.00 0.00 65 1011.6
20260508195011 23 209 0.0 9.7 0.00 0.00 0.00 66 1011.5
20260508194526 23 130 3.2 9.7 0.00 0.00 0.00 65 1011.5
20260508194010 23 275 1.6 16.1 0.00 0.00 0.00 64 1011.5
20260508193504 23 134 4.8 16.1 0.00 0.00 0.00 65 1011.7
20260508193008 23 161 3.2 9.7 0.00 0.00 0.00 65 1011.7
20260508192504 23 189 1.6 9.7 0.00 0.00 0.00 65 1011.8
20260508192005 24 102 1.6 9.7 0.00 0.00 0.00 64 1011.8
20260508191516 24 166 3.2 11.3 0.00 0.00 0.00 64 1011.9
20260508191007 24 178 3.2 11.3 0.00 0.00 0.00 63 1011.9
20260508190506 24 5 3.2 11.3 0.00 0.00 0.00 62 1012.0
20260508190016 24 123 4.8 16.1 0.00 0.00 0.00 64 1012.0
20260508185506 24 153 6.4 16.1 0.00 0.00 0.00 64 1012.0
20260508185009 24 179 3.2 16.1 0.00 0.00 0.00 63 1012.1
20260508184526 24 289 3.2 16.1 0.00 0.00 0.00 61 1012.1
20260508184011 25 105 3.2 9.7 0.00 0.00 0.00 62 1012.1
20260508183512 25 211 1.6 9.7 0.00 0.00 0.00 61 1012.3
20260508183026 25 217 3.2 14.5 0.00 0.00 0.00 61 1012.3
20260508182504 25 257 4.8 14.5 0.00 0.00 0.00 58 1012.4
20260508182010 26 154 3.2 9.7 0.00 0.00 0.00 60 1012.2
20260508181510 26 164 1.6 12.9 0.00 0.00 0.00 62 1012.3
20260508181007 25 170 1.6 12.9 0.00 0.00 0.00 59 1012.4
20260508180509 25 180 4.8 11.3 0.00 0.00 0.00 62 1012.6
20260508180016 25 191 4.8 9.7 0.00 0.00 0.00 59 1012.7
20260508175508 25 94 3.2 9.7 0.00 0.00 0.00 61 1012.8
20260508175008 25 162 3.2 9.7 0.00 0.00 0.00 61 1012.9
20260508174530 25 175 3.2 11.3 0.00 0.00 0.00 60 1013.0
20260508174011 25 13 4.8 11.3 0.00 0.00 0.00 62 1013.1
20260508173509 24 260 1.6 9.7 0.00 0.00 0.00 62 1013.1
20260508173024 24 218 1.6 16.1 0.00 0.00 0.00 64 1013.2
20260508172510 24 171 4.8 16.1 0.00 0.00 0.00 62 1013.3
20260508172011 24 256 4.8 14.5 0.00 0.00 0.00 59 1013.4
20260508171526 24 213 3.2 8.0 0.00 0.00 0.00 61 1013.3
20260508171010 24 190 4.8 8.0 0.00 0.00 0.00 61 1013.3
20260508170506 24 248 1.6 14.5 0.00 0.00 0.00 61 1013.5
20260508170010 24 300 4.8 14.5 0.00 0.00 0.00 65 1013.7
20260508165506 23 269 1.6 9.7 0.00 0.00 0.00 63 1013.9
20260508165007 23 231 3.2 9.7 0.00 0.00 0.00 63 1014.1
20260508164517 23 168 3.2 8.0 0.00 0.00 0.00 64 1014.3
20260508164011 23 299 1.6 8.0 0.00 0.00 0.00 63 1014.3
20260508163508 23 290 1.6 9.7 0.00 0.00 0.00 63 1014.4
20260508163033 22 165 3.2 9.7 0.00 0.00 0.00 63 1014.4
20260508162504 22 188 1.6 14.5 0.00 0.00 0.00 62 1014.4
20260508162009 23 222 3.2 14.5 0.00 0.00 0.00 60 1014.5
20260508161508 23 116 1.6 9.7 0.00 0.00 0.00 64 1014.5
20260508161004 23 170 3.2 9.7 0.00 0.00 0.00 64 1014.6
20260508160506 22 77 1.6 12.9 0.00 0.00 0.00 62 1014.6
20260508160012 22 204 1.6 14.5 0.00 0.00 0.00 63 1014.7
20260508155507 22 175 4.8 12.9 0.00 0.00 0.00 63 1014.7
20260508155008 22 138 1.6 8.0 0.00 0.00 0.00 64 1014.7
20260508154517 21 304 3.2 8.0 0.00 0.00 0.00 64 1014.9
20260508154009 21 152 3.2 9.7 0.00 0.00 0.00 64 1015.0
20260508153509 21 132 1.6 9.7 0.00 0.00 0.00 65 1015.0
20260508153022 21 172 1.6 11.3 0.00 0.00 0.00 64 1015.0
20260508152512 21 171 4.8 11.3 0.00 0.00 0.00 65 1015.0
20260508152010 21 157 1.6 11.3 0.00 0.00 0.00 66 1015.2
20260508151527 20 128 3.2 11.3 0.00 0.00 0.00 67 1015.1
20260508151007 20 113 1.6 6.4 0.00 0.00 0.00 66 1015.2
20260508150505 20 165 1.6 6.4 0.00 0.00 0.00 67 1015.1
20260508150009 20 169 0.0 8.0 0.00 0.00 0.00 66 1015.1
20260508145509 20 194 1.6 12.9 0.00 0.00 0.00 67 1015.1
20260508145005 20 185 3.2 12.9 0.00 0.00 0.00 66 1015.0
20260508144512 20 202 3.2 11.3 0.00 0.00 0.00 68 1015.0
20260508144008 19 142 1.6 6.4 0.00 0.00 0.00 68 1015.0
20260508143508 19 143 3.2 6.4 0.00 0.00 0.00 69 1015.0
20260508143024 19 130 1.6 6.4 0.00 0.00 0.00 68 1015.2
20260508142512 19 70 1.6 9.7 0.00 0.00 0.00 69 1015.3
20260508142011 19 166 3.2 11.3 0.00 0.00 0.00 68 1015.1
20260508141522 19 179 3.2 11.3 0.00 0.00 0.00 68 1015.2
20260508141009 19 92 1.6 9.7 0.00 0.00 0.00 67 1015.3
20260508140509 20 199 3.2 9.7 0.00 0.00 0.00 67 1015.4
20260508140016 20 184 3.2 9.7 0.00 0.00 0.00 68 1015.3
20260508135504 19 187 3.2 9.7 0.00 0.00 0.00 68 1015.3
20260508135007 18 107 1.6 8.0 0.00 0.00 0.00 70 1015.3
20260508134525 18 178 3.2 8.0 0.00 0.00 0.00 70 1015.4
20260508134007 18 280 3.2 8.0 0.00 0.00 0.00 71 1015.4
20260508133507 18 201 3.2 6.4 0.00 0.00 0.00 73 1015.2
20260508133016 18 149 1.6 6.4 0.00 0.00 0.00 74 1015.2
20260508132513 18 162 1.6 6.4 0.00 0.00 0.00 76 1015.2
20260508132006 17 146 1.6 6.4 0.00 0.00 0.00 77 1015.2
20260508131520 17 146 1.6 6.4 0.00 0.00 0.00 80 1015.3
20260508131011 17 176 1.6 6.4 0.00 0.00 0.00 81 1015.2
20260508130510 17 129 0.0 3.2 0.00 0.00 0.00 82 1015.3
20260508130026 16 165 0.0 3.2 0.00 0.00 0.00 83 1015.6
20260508125515 16 129 0.0 3.2 0.00 0.00 0.00 84 1015.6
20260508125010 16 113 0.0 3.2 0.00 0.00 0.00 85 1015.5